sat.trackr.live / text

‹ back to catalog

STARLINK-11568 [DTC]

NORAD 63307 · 2025-057A

PAYLOAD ACTIVE UNKNOWN

§ Identity

Operator
Country
US
Launch date
2025-03-18
Launch site
AFETR
Launch vehicle
Mass (kg)
RCS (m²)

Purposes: comms

External: N2YO · Heavens-Above · Gunter

§ Orbital elements

Epoch: 2026-05-24T18:00:19.933344Z

Period
91.67 min
Inclination
43.0006°
Eccentricity
0.0000723
Mean motion
15.70881932 rev/d
Perigee alt
355.9 km
Apogee alt
356.9 km
Semi-major
6,734.5 km
B*
1.5415e-3
RAAN
165.7348°
Arg perigee
311.1637°
Mean anomaly
48.9168°
Rev number
6,914

§ Raw data

STARLINK-11568 [DTC]1 63307U 25057A   26144.75023071  .00202594  00000+0  15415-2 0  99992 63307  43.0006 165.7348 0000723 311.1637  48.9168 15.70881932 69142

JSON: /api/v1/satellites/63307 · /tle

For live sub-satellite position, see the globe view (requires WebGL).

§ Visibility from observer

Set your observer location to see the next 7 days of passes ≥ 10°. The values pass through the URL so the page stays shareable.

No JS? Fill the form by hand. The geolocation button needs JavaScript.